KOSEN 1
1 49402U 21102H   25328.70537914  .00008970  00000-0  38118-3 0  9999
2 49402  97.3494   9.9744 0014107 203.3411 156.7187 15.23185314222854
HO-113
1 50466U 21131B   25328.87556318  .00000679  00000-0  22481-3 0  9994
2 50466  98.5064  57.3868 0003986   7.7379 352.3870 14.41075986205685
SNUGLITE 2
1 52899U 22065F   25328.61945032  .00001506  00000-0  29812-3 0  9995
2 52899  98.1921 109.2569 0006535 311.8088  48.2555 14.63759322181062
UmKA 1 (RS40S)
1 57172U 23091G   25328.81232088  .00007755  00000-0  38561-3 0  9999
2 57172  97.5362  23.3570 0015114 109.7437 250.5429 15.17815948132977
CubeBel-2 (EU11S)
1 57175U 23091K   25328.79236529  .00014351  00000-0  60504-3 0  9995
2 57175  97.5359  25.6684 0012371 112.7405 247.5140 15.23356886133120
SONATE-2
1 59112U 24043Q   25328.38101715  .00028740  00000-0  63624-3 0  9992
2 59112  97.5334 103.9687 0008814 228.9892 131.0594 15.43718023 96143
MO-122
1 60209U 24125G   25328.59406936  .00035206  00000-0  75098-3 0  9991
2 60209  97.2539 178.9717 0013454 250.7507 109.2286 15.44718036 77806
GRBBeta
1 60237U 24128C   25328.67498433  .00005177  00000-0  36992-3 0  9991
2 60237  61.9893 212.7389 0056822  93.0026 267.7570 15.04503938 75476
Curium One
1 60242U 24128H   25328.10462166  .00009445  00000-0  59483-3 0  9991
2 60242  61.9790 210.0409 0056874  89.9009 270.8602 15.08417348 75478
ROBUSTA-3A
1 60243U 24128J   25328.10025268  .00009684  00000-0  61962-3 0  9990
2 60243  61.9865 211.5094 0056700  87.3737 273.3845 15.07822390 75457
CatSat
1 60246U 24125J   25328.15117482  .00037082  00000-0  94860-3 0  9991
2 60246  97.2340 175.7567 0033712 212.6490 147.2672 15.38740632 75665
HYPERVIEW-1G (RS66S)
1 61772U 24199AP  25328.88818058  .00046653  00000-0  95474-3 0  9990
2 61772  97.3223 198.1233 0009394 317.6118  42.4405 15.45927745102854
AO-123
1 61781U 24199AY  25328.83738005  .00012245  00000-0  40467-3 0  9990
2 61781  97.3260 194.4884 0013996 326.9474  33.0891 15.31419895102602
ZIMSAT 2
1 61783U 24199BA  25328.87401265  .00172853  00000-0  16953-2 0  9995
2 61783  97.3124 201.0554 0004752 320.2512  39.8399 15.65511886106209
HADES-R (SO-124)
1 62690U 25009CK  25327.20675523  .00129085  00000-0  21087-2 0  9993
2 62690  97.3908  49.1802 0002720 233.5173 126.5829 15.52093508 47743
HYDRA-T
1 62692U 25009CM  25328.16971010  .00139769  00000-0  21664-2 0  9992
2 62692  97.3906  50.3325 0002424 232.6424 127.4609 15.53519751 47905
JINJUSat 1B
1 63210U 25052A   25328.69044801  .00018009  00000-0  70478-3 0  9995
2 63210  97.4205 220.9687 0006155  86.0735 274.1207 15.25861266 38838
NUSHSAT 1
1 63211U 25052B   25328.69737659  .00020754  00000-0  78937-3 0  9994
2 63211  97.4188 221.0743 0006111  88.5029 271.6909 15.26781601 38846
TEVEL2-4
1 63213U 25052D   25328.69069581  .00019622  00000-0  76047-3 0  9990
2 63213  97.4109 220.6559 0005081  97.0689 263.1128 15.26173305 38837
TEVEL2-5
1 63214U 25052E   25328.69532816  .00019264  00000-0  74813-3 0  9998
2 63214  97.4106 220.6510 0005056  98.3898 261.7913 15.26108746 38833
TEVEL2-6
1 63215U 25052F   25328.70207588  .00019884  00000-0  77314-3 0  9993
2 63215  97.4108 220.6459 0005127  98.7819 261.4000 15.26061447 38834
TEVEL2-1
1 63217U 25052H   25328.67542699  .00019064  00000-0  74844-3 0  9991
2 63217  97.4084 220.4458 0004922 107.5232 252.6544 15.25749695 38827
TEVEL2-3
1 63218U 25052J   25328.67486812  .00019161  00000-0  75180-3 0  9998
2 63218  97.4085 220.4498 0004946 108.5383 251.6392 15.25767876 38828
TEVEL2-2
1 63219U 25052K   25328.67620897  .00018926  00000-0  74302-3 0  9995
2 63219  97.4083 220.4469 0004917 108.7100 251.4672 15.25750004 38826
TEVEL2-9
1 63237U 25052AD  25328.68744183  .00017817  00000-0  73015-3 0  9999
2 63237  97.4143 220.1896 0008395 131.8375 228.3580 15.24302547 38790
TEVEL2-7
1 63238U 25052AE  25328.69965534  .00017789  00000-0  73198-3 0  9996
2 63238  97.4151 220.1794 0008402 131.3939 228.8022 15.24165200 38796
TEVEL2-8
1 63239U 25052AF  25328.63932734  .00018116  00000-0  74603-3 0  9994
2 63239  97.4150 220.1049 0008367 132.3055 227.8893 15.24135982 38787
HYDRA-W
1 63490U 25052BL  25328.50457527  .00069523  00000-0  18328-2 0  9990
2 63490  97.4072 222.0695 0010629 118.0550 242.1771 15.38193512 38910
HADES-ICM (SO-125)
1 63492U 25052BN  25328.67380799  .00061103  00000-0  16971-2 0  9994
2 63492  97.4080 222.0176 0010620 122.4914 237.7358 15.36614652 38922
Dragonfly
1 65729U 98067XH  25328.45356203  .00136505  00000-0  13042-2 0  9999
2 65729  51.6268 228.9341 0006094 174.3849 185.7215 15.65759999 10299
RSP-03
1 65732U 98067XL  25327.97661881  .00108568  00000-0  11334-2 0  9990
2 65732  51.6285 231.7507 0006940 150.3605 209.7784 15.63631631 10223
GHS-01
1 65733U 98067XM  25328.42971269  .00151210  00000-0  13558-2 0  9998
2 65733  51.6289 228.7787 0006598 172.5677 187.5418 15.67279698 10309
BOTAN
1 65942U 98067XP  25328.14789398  .00093675  00000-0  11894-2 0  9990
2 65942  51.6299 232.8955 0004680 127.4021 232.7398 15.58627558  6966
CEVROSAT1
1 98526U 25248E   25313.13142326  .00000000  00000-0  19360-3 0    02
2 98526  45.4084 218.4764 0001315 254.8982 242.1062 15.17981583    02
